Regional Weather Roundup
Issued by NWS

Home | Current Version | Previous Version | Graphics & Text | Print | Product List | Glossary On
Versions: 1 2 3 4 5 6 7 8 9 10 11 12 13 14 15 16 17 18 19 20 21 22 23 24 25 26 27 28 29 30 31 32 33 34 35 36 37 38 39 40 41 42 43 44 45 46 47 48 49 50
000
ASUS43 KFSD 151702
RWRSD

WEATHER ROUNDUP FOR SOUTH DAKOTA
NATIONAL WEATHER SERVICE SIOUX FALLS SD
1200 PM CDT TUE APR 15 2014

NOTE: "FAIR" INDICATES FEW OR NO CLOUDS BELOW 12,000 FEET WITH NO
SIGNIFICANT WEATHER AND/OR OBSTRUCTIONS TO VISIBILITY.


SDZ001>005-009-010-012>017-151800-
NORTHWEST AND NORTH CENTRAL SOUTH DAKOTA

CITY           SKY/WX    TMP DP  RH WIND       PRES   REMARKS
BUFFALO          N/A     48  20  32 S12       29.62F
FAITH            N/A     40  19  43 S16       29.75F
MOBRIDGE       PTSUNNY   37  17  44 SE25      29.84F
$$

SDZ012>016-024>037-041>051-057-063-072>074-151800-
SOUTHWEST AND SOUTH CENTRAL SOUTH DAKOTA

CITY           SKY/WX    TMP DP  RH WIND       PRES   REMARKS
RAPID CTY ARPT CLOUDY    52  24  33 SE7       29.72F
PIERRE         MOSUNNY   41  17  38 SE25G32   29.85F
CUSTER         CLOUDY    46  14  27 W9        29.76F
ELLSWORTH AFB  MOSUNNY   52  23  32 S7        29.71F
PHILIP           N/A    N/A N/A N/A MISG        N/A
PINE RIDGE     PTSUNNY   54  25  32 SW15G22   29.79F
WINNER         FAIR      49  20  31 S17G26    29.86F
$$

SDZ004>011-016>023-039-040-151800-
NORTHEAST SOUTH DAKOTA

CITY           SKY/WX    TMP DP  RH WIND       PRES   REMARKS
ABERDEEN       PTSUNNY   33  10  38 SE15      30.01F WCI  23
WATERTOWN      SUNNY     32  12  43 S12G17    30.03F WCI  23
SISSETON         N/A     29  16  58 S12       30.09F WCI  19
$$

SDZ017-020-022-023-036>040-048>070-151800-
SOUTHEAST SOUTH DAKOTA

CITY           SKY/WX    TMP DP  RH WIND       PRES   REMARKS
SIOUX FALLS    MOSUNNY   35  14  42 S9        30.08F WCI  28
HURON          SUNNY     37  17  44 SE18G24   30.00F
CHAMBERLAIN      N/A     43  17  35 SE24G33   29.91F
MITCHELL       SUNNY     39  19  44 S20       30.03F
YANKTON        SUNNY     39  18  41 SE14G24   30.08F
$$

ABBREVIATIONS USED IN REMARKS
   TC - TEMPERATURE IN CELSIUS
  WCI - WIND CHILL INDEX
   HX - HEAT INDEX
  VSB - VISIBILITY




USA.gov is the U.S. government's official web portal to all federal, state and local government web resources and services.